STARLINK-31972, 59923

Orbit data source: Space-Track

STARLINK-31972, 59923 is a payload satellite owned by SpaceX/Seattle (US) in LEO that was launched on Sat, 01 Jun 2024 UTC via an FALCON 9 launch vehicle from the Air Force Eastern Test Range (AFETR). Payload-class satellites include a variety of spacecraft equipped with specific instruments for various scientific and technological missions. These include communications satellites like Starlink; space stations such as the ISS; scientific satellites like the Hubble; Earth observation satellites from companies like Planet Labs, Umbra, and HawkEye 360; GPS; miniature CubeSats for education and research; and military/defense satellites.

Loading next visibility...
Identifier
59923, 2024-106B
Orbit
LEO
Country
Flag of USUS
Related business
Manufacturer
SpaceX/Seattle
Mission
Operational Commercial Communications
Bus & Motor
STARLINK V2M, Unknown motor
Mass
730 kg wet, ~700 kg dry
Launch date (UTC)
2024-06-01 (2 years ago)
Launch vehicle
FALCON 9
Launch site
Air Force Eastern Test Range (AFETR)
Object type
Payload
Rocket body
Debris
Shape & HBR
Box + 2 Pan, 17.7 m
Radar Cross Section
33.884 m², Large (>1 m²)

Expand to show TLE details & history
Last TLE update: 2 days ago

TLE from 2 days ago
0 STARLINK-31972
1 59923U 24106B   26171.16333180 -.00000685  00000-0 -15376-4 0  9990
2 59923  43.0026 113.9089 0001022 268.9204  91.1530 15.27565273116248
Epoch: 2026-06-20T03:55Z
TLE epoch observation values (Epoch: 2026-06-20T03:55:11.867Z)
Latitude
-0.00006°
Longitude
146.72749°
Altitude
482.883 km
Speed
7.626 km/s
True Right ascension
07h 35m 38s
True Declination
0° 00' 00"
Sunlit
Object was in daylight at epoch
Visualization orbit readout
Latitude
Unknown
Longitude
Unknown
Altitude
Unknown
Speed
Unknown
Apparent Right ascension
Unknown
Apparent Declination
Unknown
Sunlit
N/A
Visualization observer readout
Local Sidereal Time
21:43:12
Azimuth
Unknown
Elevation
Unknown
Doppler factor
Unknown
Orbital elements
Apogee altitude
485.739 km
Perigee altitude
484.337 km
Semi-major axis
6,863.175 km
Eccentricity
0.0001
Inclination
43.0026°
RAAN
113.9089°
Arg. of periapsis
268.9204°
True anomaly
91.16471°
Mean anomaly
91.153°
Eccentric anomaly
91.15885°
Mean motion
3.81729 °/min
Orbital period
94.31 mins
BSTAR
-0.000015376
Loading maneuver chart data...
Computing Atmospheric mass density...
Loading historical data...
Loading historical data...
Loading historical data...
Loading historical data...
Loading historical data...
Loading historical data...
Loading historical data...

Documentation

Showing up to 5 results
|